(119151) = 2001 PW61

Discovered at Haleakala on 2001-08-13 by NEAT.

Orbit

Orbit type: Main Belt

Note: WebGL enabled browser required.

epoch2023-09-13.0
epoch JD2460200.5
perihelion date2021-07-09.09515
perihelion JD2459404.59515
argument of perihelion (°)89.95091
ascending node (°)334.94630
inclination (°)11.88401
eccentricity0.2306217
perihelion distance (AU)1.8869972
Tisserand w.r.t. Jupiter3.4
ΔV w.r.t. Earth (km/sec)9.3
semimajor axis (AU)2.4526260
mean anomaly (°)204.22928
mean daily motion (°/day)0.25660010
aphelion distance (AU)3.018
period (years)3.84
P-vector [x]0.41516722
P-vector [y]0.73109488
P-vector [z]0.54142078
Q-vector [x]-0.90555587
Q-vector [y]0.38915045
Q-vector [z]0.16890969
absolute magnitude16.04
phase slope0.15
uncertainty0
referenceMPEC 2023-X132
observations used885
oppositions13
arc length (days)8477
first opposition used1999
last opposition used2022
residual rms (arc-secs)0.68
perturbers coarse indicatorM-v
perturbers precise indicator003Ek
first observation date used1999-02-12.0
last observation date used2022-04-29.0
computer nameMPCLINUX
JD of orbit computation2456670.845494
perihelion JD uncertainty (days)1.0987E-04
argument of perihelion uncertainty (°)6.0438E-05
ascending node uncertainty (°)2.9702E-05
inclination uncertainty (°)6.5489E-06
eccentricity uncertainty 1.2809E-07
perihelion distance uncertainty (AU)2.8674E-07
Minimum Orbit Intersection Distances (in AU)
for orbit epoch: 2460200.5, reference: E2023-XD2
Mercury1.58365
Venus1.19307
Earth0.94272
Mars0.43463
Jupiter2.4247
Saturn6.96393
Uranus15.8172
Neptune27.5627

Observations

895 total observations over interval: 1999 02 12.36979 – 2022 04 29.207069
These data are available for download (format description).

Date (UT) J2000 RA J2000 Dec Magn Location Ref
1999 02 12.36979 10 39 27.08 +10 01 13.1 18.5 R 699 – Lowell Observatory-LONEOS MPS 78073
1999 02 12.39602 10 39 25.24 +10 01 12.5   699 – Lowell Observatory-LONEOS MPS 78073
1999 02 12.42266 10 39 23.41 +10 01 11.8   699 – Lowell Observatory-LONEOS MPS 78073
2001 08 13.37702 22 54 56.64 -07 52 21.4 20.3   608 – Haleakala-AMOS MPS 34572
2001 08 13.38757 22 54 56.09 -07 52 20.8 20.1   608 – Haleakala-AMOS MPS 34572
2001 08 13.39824 22 54 55.49 -07 52 20.3 19.5   608 – Haleakala-AMOS MPS 34572
2001 08 16.27796 22 52 19.14 -07 50 31.4 18.7   704 – Lincoln Laboratory ETS, New Mexico MPS 34572
2001 08 16.29023 22 52 18.43 -07 50 31.9 19.0   704 – Lincoln Laboratory ETS, New Mexico MPS 34572
2001 08 16.32702 22 52 16.22 -07 50 29.6 20.0   704 – Lincoln Laboratory ETS, New Mexico MPS 34572
2001 08 27.24119 22 40 56.93 -07 47 28.9 18.1 R 699 – Lowell Observatory-LONEOS MPS 35910
2001 08 27.26468 22 40 55.35 -07 47 29.4   699 – Lowell Observatory-LONEOS MPS 35910
2001 08 27.28831 22 40 53.74 -07 47 29.0   699 – Lowell Observatory-LONEOS MPS 35910
2001 08 27.31172 22 40 52.09 -07 47 28.5   699 – Lowell Observatory-LONEOS MPS 35910
2001 08 28.22516 22 39 51.08 -07 47 22.7 18.6   644 – Palomar Mountain/NEAT MPS 35910
2001 08 28.24682 22 39 49.58 -07 47 22.9 18.1   644 – Palomar Mountain/NEAT MPS 35910
2001 08 28.26807 22 39 48.10 -07 47 22.2 17.9   644 – Palomar Mountain/NEAT MPS 35910
2001 09 07.19467 22 28 30.76 -07 46 17.0 19.2   704 – Lincoln Laboratory ETS, New Mexico MPS 34572
2001 09 07.20850 22 28 29.88 -07 46 19.6 19.4   704 – Lincoln Laboratory ETS, New Mexico MPS 34572
2001 09 07.22232 22 28 28.88 -07 46 17.2 18.9   704 – Lincoln Laboratory ETS, New Mexico MPS 34572
2001 09 07.23618 22 28 27.89 -07 46 16.9 18.6   704 – Lincoln Laboratory ETS, New Mexico MPS 34572
2001 09 07.25006 22 28 26.93 -07 46 16.8 18.6   704 – Lincoln Laboratory ETS, New Mexico MPS 34572
2001 09 12.26652 22 22 53.35 -07 44 48.5 18.8   704 – Lincoln Laboratory ETS, New Mexico MPS 34572
2001 09 12.28102 22 22 52.36 -07 44 47.9 18.7   704 – Lincoln Laboratory ETS, New Mexico MPS 34572
2001 09 12.29549 22 22 51.40 -07 44 47.8 19.0   704 – Lincoln Laboratory ETS, New Mexico MPS 34572
2001 09 12.31009 22 22 50.42 -07 44 47.5 19.2   704 – Lincoln Laboratory ETS, New Mexico MPS 34572
2001 09 12.32460 22 22 49.49 -07 44 47.3 19.6   704 – Lincoln Laboratory ETS, New Mexico MPS 34572
2001 09 19.263940 22 15 43.901 -07 40 32.65 18.87 V 645 – Apache Point-Sloan Digital Sky Survey MPS 79875
2001 09 19.267412 22 15 43.698 -07 40 32.47 19.67   645 – Apache Point-Sloan Digital Sky Survey MPS 79875
2001 09 20.19619 22 14 51.30 -07 39 42.4 19.4   704 – Lincoln Laboratory ETS, New Mexico MPS 35910
2001 09 20.21049 22 14 50.45 -07 39 41.8 19.1   704 – Lincoln Laboratory ETS, New Mexico MPS 35910
2001 09 20.22466 22 14 49.66 -07 39 40.8 18.6   704 – Lincoln Laboratory ETS, New Mexico MPS 35910
2001 09 20.23882 22 14 48.79 -07 39 40.2 18.4   704 – Lincoln Laboratory ETS, New Mexico MPS 35910
2001 09 22.19841 22 13 02.21 -07 37 41.8 19.6   704 – Lincoln Laboratory ETS, New Mexico MPS 35910
2001 09 22.21258 22 13 01.45 -07 37 41.4 19.0   704 – Lincoln Laboratory ETS, New Mexico MPS 35910
2001 09 22.24090 22 12 59.91 -07 37 38.9 18.6   704 – Lincoln Laboratory ETS, New Mexico MPS 35910
2001 09 23.20938 22 12 09.47 -07 36 33.8 18.9   704 – Lincoln Laboratory ETS, New Mexico MPS 43597
2001 09 23.22363 22 12 08.69 -07 36 33.6 18.9   704 – Lincoln Laboratory ETS, New Mexico MPS 43597
2001 09 23.23786 22 12 07.92 -07 36 31.5 18.7   704 – Lincoln Laboratory ETS, New Mexico MPS 43597
2003 03 07.30772 11 37 19.21 -03 51 08.6 19.0   704 – Lincoln Laboratory ETS, New Mexico MPS 78073
2003 03 07.32163 11 37 18.28 -03 51 07.1 18.6   704 – Lincoln Laboratory ETS, New Mexico MPS 78073
2003 03 07.34387 11 37 16.75 -03 51 03.4 19.4   704 – Lincoln Laboratory ETS, New Mexico MPS 78073
2003 03 31.29670 11 12 28.83 -02 53 56.2 19.3   704 – Lincoln Laboratory ETS, New Mexico MPS 78073
2003 03 31.30825 11 12 28.23 -02 53 54.0 19.9   704 – Lincoln Laboratory ETS, New Mexico MPS 78073
2003 03 31.31989 11 12 27.57 -02 53 52.7 19.4   704 – Lincoln Laboratory ETS, New Mexico MPS 78073
2003 03 31.33150 11 12 26.91 -02 53 50.2 19.3   704 – Lincoln Laboratory ETS, New Mexico MPS 78073
2005 08 29.44791 00 27 47.89 +10 40 37.2 18.7 R 644 – Palomar Mountain/NEAT MPS 140970
2005 08 29.45886 00 27 47.48 +10 40 41.2 18.7 R 644 – Palomar Mountain/NEAT MPS 140970
2005 08 29.47252 00 27 46.99 +10 40 46.3 18.6 R 644 – Palomar Mountain/NEAT MPS 140970
2005 08 30.30865 00 27 17.87 +10 45 55.7 19.1   704 – Lincoln Laboratory ETS, New Mexico MPS 140068
2005 08 30.31965 00 27 17.44 +10 45 59.5 18.9   704 – Lincoln Laboratory ETS, New Mexico MPS 140068
2005 08 30.34217 00 27 16.56 +10 46 08.2 18.9   704 – Lincoln Laboratory ETS, New Mexico MPS 140068
2005 09 09.03332 00 20 01.55 +11 37 26.4 18.0 V A50 – Andrushivka Astronomical Observatory MPS 175893
2005 09 09.04083 00 20 01.12 +11 37 28.1 18.5 V A50 – Andrushivka Astronomical Observatory MPS 175893
2005 09 10.32748 00 18 51.83 +11 43 05.1 18.3 R 699 – Lowell Observatory-LONEOS MPS 141609
2005 09 10.35027 00 18 50.46 +11 43 11.0   699 – Lowell Observatory-LONEOS MPS 141609
2005 09 10.37305 00 18 49.19 +11 43 16.4   699 – Lowell Observatory-LONEOS MPS 141609
2005 09 10.39578 00 18 47.73 +11 43 22.0   699 – Lowell Observatory-LONEOS MPS 141609
2005 09 11.28850 00 17 58.30 +11 47 04.7 18.7   704 – Lincoln Laboratory ETS, New Mexico MPS 141609
2005 09 11.30006 00 17 57.67 +11 47 07.4 18.6   704 – Lincoln Laboratory ETS, New Mexico MPS 141609
2005 09 11.31167 00 17 56.91 +11 47 09.6 18.6   704 – Lincoln Laboratory ETS, New Mexico MPS 141609
2005 09 11.32309 00 17 56.22 +11 47 13.5 18.5   704 – Lincoln Laboratory ETS, New Mexico MPS 141609
2005 09 11.33478 00 17 55.53 +11 47 16.1 18.5   704 – Lincoln Laboratory ETS, New Mexico MPS 141609
2005 09 15.28836 00 14 02.04 +12 01 46.6 18.0 R 683 – Goodricke-Pigott Observatory, Tucson MPS 141609
2005 09 15.30201 00 14 01.18 +12 01 51.6 17.3 R 683 – Goodricke-Pigott Observatory, Tucson MPS 141609
2005 09 15.31570 00 14 00.28 +12 01 54.1 18.6 R 683 – Goodricke-Pigott Observatory, Tucson MPS 141609
2005 09 23.26051 00 05 22.13 +12 22 10.3 19.3 R 683 – Goodricke-Pigott Observatory, Tucson MPS 142179
2005 09 23.27415 00 05 21.18 +12 22 11.7 19.1 R 683 – Goodricke-Pigott Observatory, Tucson MPS 142179
2005 09 23.28785 00 05 20.15 +12 22 12.4 19.1 R 683 – Goodricke-Pigott Observatory, Tucson MPS 142179
2005 09 24.25699 00 04 14.10 +12 23 51.7 19.0 R 683 – Goodricke-Pigott Observatory, Tucson MPS 142509
2005 09 24.27065 00 04 13.08 +12 23 53.0 19.4 R 683 – Goodricke-Pigott Observatory, Tucson MPS 142509
2005 09 24.28433 00 04 12.12 +12 23 56.0 18.6 R 683 – Goodricke-Pigott Observatory, Tucson MPS 142509
2005 09 25.25349 00 03 05.65 +12 25 22.3 19.0 R 683 – Goodricke-Pigott Observatory, Tucson MPS 142509
2005 09 25.26713 00 03 04.67 +12 25 24.4 19.3 R 683 – Goodricke-Pigott Observatory, Tucson MPS 142509
2005 09 25.28082 00 03 03.71 +12 25 24.4 18.8 R 683 – Goodricke-Pigott Observatory, Tucson MPS 142509
2005 09 26.24995 00 01 57.13 +12 26 45.9 18.6 R 683 – Goodricke-Pigott Observatory, Tucson MPS 142509
2005 09 26.26361 00 01 56.15 +12 26 45.7 19.3 R 683 – Goodricke-Pigott Observatory, Tucson MPS 142509
2005 09 26.27729 00 01 55.21 +12 26 47.4 18.9 R 683 – Goodricke-Pigott Observatory, Tucson MPS 142509
2005 09 29.23938 23 58 30.61 +12 29 46.3 18.8 R 683 – Goodricke-Pigott Observatory, Tucson MPS 142509
2005 09 29.25303 23 58 29.66 +12 29 46.6 19.2 R 683 – Goodricke-Pigott Observatory, Tucson MPS 142509
2005 09 29.26671 23 58 28.65 +12 29 47.6 19.3 R 683 – Goodricke-Pigott Observatory, Tucson MPS 142509
2005 09 30.23586 23 57 21.88 +12 30 25.8 18.7 R 683 – Goodricke-Pigott Observatory, Tucson MPS 143501
2005 09 30.24951 23 57 20.91 +12 30 26.0 19.3 R 683 – Goodricke-Pigott Observatory, Tucson MPS 143501
2005 09 30.26320 23 57 19.95 +12 30 28.0 18.5 R 683 – Goodricke-Pigott Observatory, Tucson MPS 143501
2005 09 30.89174 23 56 36.77 +12 30 46.1 18.0 R 106 – Crni Vrh MPS 143501
2005 09 30.89759 23 56 36.38 +12 30 46.2 18.0 R 106 – Crni Vrh MPS 143501
